sat.trackr.live / text

‹ back to catalog

STARLINK-4515

NORAD 53397 · 2022-097K

PAYLOAD ACTIVE UNKNOWN

§ Identity

Operator
Country
US
Launch date
2022-08-10
Launch site
AFETR
Launch vehicle
Mass (kg)
RCS (m²)

Purposes: comms

External: N2YO · Heavens-Above · Gunter

§ Orbital elements

Epoch: 2026-09-20T04:44:26.880576Z

Period
93.84 min
Inclination
53.1608°
Eccentricity
0.0002170
Mean motion
15.34567185 rev/d
Perigee alt
460.7 km
Apogee alt
463.7 km
Semi-major
6,840.3 km
B*
-1.0392e-3
RAAN
323.4812°
Arg perigee
52.0784°
Mean anomaly
308.0414°
Rev number
22,797

§ Raw data

STARLINK-45151 53397U 22097K   26263.19753334 -.00035514  00000+0 -10392-2 0  99972 53397  53.1608 323.4812 0002170  52.0784 308.0414 15.34567185227973

JSON: /api/v1/satellites/53397 · /tle

For live sub-satellite position, see the globe view (requires WebGL).

§ Visibility from observer

Set your observer location to see the next 7 days of passes ≥ 10°. The values pass through the URL so the page stays shareable.

No JS? Fill the form by hand. The geolocation button needs JavaScript.